WP4T Weather Reports


Display with metric or nautical units.
time (UTC)temp
F
wind
direction
speed
MPH
gust
MPH
rain 1hr
in
rain 24hr
in
rain mn
in
humidity
%
barometer
mb
20260505041512 75 80 0.0 1.0 0.00 0.00 0.00 90 1016.2
20260505040014 75 80 0.0 0.0 0.00 0.00 0.00 90 1016.5
20260505034515 75 80 0.0 2.0 0.00 0.00 0.00 90 1016.7
20260505033012 76 80 0.0 1.0 0.00 0.00 0.00 89 1016.7
20260505031514 76 80 0.0 1.0 0.00 0.00 0.00 89 1016.8
20260505030012 77 80 0.0 1.0 0.00 0.00 0.00 89 1016.9
20260505024512 77 80 0.0 1.0 0.00 0.00 0.00 89 1016.8
20260505023016 77 80 0.0 2.0 0.00 0.00 0.00 89 1016.7
20260505021514 78 80 0.0 0.0 0.00 0.00 0.00 88 1016.7
20260505020015 78 80 0.0 1.0 0.00 0.00 0.00 88 1016.6
20260505014514 78 80 0.0 2.0 0.00 0.00 0.00 88 1016.3
20260505013016 78 80 0.0 0.0 0.00 0.00 0.00 88 1016.2
20260505011517 79 80 0.0 0.0 0.00 0.00 0.00 87 1016.0
20260505010011 79 80 0.0 2.0 0.00 0.00 0.00 87 1015.9
20260505004518 79 80 0.0 2.0 0.00 0.00 0.00 86 1015.7
20260505003021 79 80 0.0 2.0 0.00 0.00 0.00 86 1015.7
20260505001518 80 80 0.0 2.0 0.00 0.00 0.00 85 1015.6
20260505000018 80 92 0.0 2.0 0.00 0.00 0.00 85 1015.6
20260504234515 80 111 0.0 2.0 0.00 0.00 0.00 85 1015.2
20260504233020 81 112 0.0 3.0 0.00 0.00 0.00 85 1015.2
20260504231517 81 112 1.0 4.0 0.00 0.00 0.00 84 1015.2
20260504230021 82 123 1.0 7.0 0.00 0.00 0.00 83 1015.2
20260504224521 82 129 1.0 6.0 0.00 0.00 0.00 83 1015.1
20260504223018 82 126 4.0 8.0 0.00 0.00 0.00 82 1014.7
20260504221528 83 127 1.0 7.0 0.00 0.00 0.00 82 1014.5
20260504220026 83 103 4.0 9.0 0.00 0.00 0.00 80 1014.5
20260504214531 84 137 3.0 10.0 0.00 0.00 0.00 80 1014.2
20260504213026 85 90 4.0 10.0 0.00 0.00 0.00 76 1014.1
20260504211527 85 135 5.0 11.0 0.00 0.00 0.00 77 1014.1
20260504210032 85 98 3.0 12.0 0.00 0.00 0.00 78 1014.1
20260504204533 85 140 6.0 13.0 0.00 0.00 0.00 78 1014.0
20260504203039 86 95 4.0 16.0 0.00 0.00 0.00 77 1014.2
20260504201525 86 153 5.0 13.0 0.00 0.00 0.00 77 1014.2
20260504200026 86 130 7.0 16.0 0.00 0.00 0.00 74 1014.3
20260504194533 87 119 4.0 15.0 0.00 0.00 0.00 75 1014.4
20260504193026 87 136 10.0 18.0 0.00 0.00 0.00 73 1014.5
20260504191521 86 120 7.0 17.0 0.00 0.00 0.00 76 1014.5
20260504190017 87 109 7.0 18.0 0.00 0.00 0.00 76 1014.6
20260504184519 86 62 6.0 21.0 0.00 0.00 0.00 76 1014.9
20260504183030 88 100 5.0 18.0 0.00 0.00 0.00 73 1014.9
20260504181508 87 159 10.0 20.0 0.00 0.00 0.00 72 1015.0
20260504180013 87 129 9.0 19.0 0.00 0.00 0.00 71 1015.0
20260504174519 88 171 12.0 20.0 0.00 0.00 0.00 66 1015.1
20260504173024 89 129 10.0 23.0 0.00 0.00 0.00 65 1015.3
20260504171524 89 73 5.0 15.0 0.00 0.00 0.00 62 1015.5
20260504081524 71 95 0.0 3.0 0.00 0.00 0.00 91 1014.9